Track CHUBUSAT-1 now! 10-day predictions CHUBUSAT-1 is classified as:
1 40300U 14070C 24326.15294224 .00159963 00000-0 94306-3 0 9993 2 40300 97.0533 6.5991 0006642 170.5847 189.5546 15.77696157559153